Location: Bühlhof
(48.7849°N, 8.6361°E)
Time: 00:12:32
(UTC+00:00)

Cosmos 1980 Rocket - Pass Details

Date: 19 January 2026
Orbit: 829 x 847 km, 71.0° (Epoch: 9 February)

Event Time Altitude Azimuth Distance (km) Brightness Sun altitude
Rises 16:32:48 0° 336° (NNW) 3,383 5.3 -5.2°
Reaches altitude 10° 16:36:22 10° 358° (N) 2,448 4.4 -5.8°
Maximum altitude 16:39:36 15° 34° (NE) 2,089 3.8 -6.2°
Drops below altitude 10° 16:42:50 10° 70° (ENE) 2,446 3.9 -6.7°
Enters shadow 16:43:41 - 76° (ENE) 2,635 4.1 -6.9°
